Location: Joplin, MO
(37.0842°N, 94.5133°W)
Time: 16:37:08
(UTC+02:00)

A-11 Canister half - Visible Passes

Search period start: 30 March 2023 00:00
Search period end: 09 April 2023 00:00
Orbit: 1526 x 1682 km, 47.3° (Epoch: 29 March)

Date Brightness Start Highest point End Pass type
(mag) Time Alt. Az. Time Alt. Az. Time Alt. Az.
30 Mar 9.6 03:15:04 10° WNW 03:24:43 51° NNE 03:33:26 12° E visible
30 Mar 8.8 05:20:42 10° WNW 05:30:32 84° SW 05:31:44 72° SE visible
30 Mar 10.7 07:27:08 10° WNW 07:30:02 18° W 07:30:02 18° W visible
31 Mar 9.6 02:53:16 10° WNW 03:02:56 50° NNE 03:12:16 10° E visible
31 Mar 8.9 04:58:56 10° WNW 05:08:50 87° SSW 05:11:18 57° SE visible
31 Mar 10.5 07:05:14 10° WNW 07:09:36 23° W 07:09:36 23° W visible
01 Apr 9.0 04:37:11 10° WNW 04:47:07 90° NE 04:50:53 44° SE visible
01 Apr 10.2 06:43:21 10° WNW 06:49:12 27° WSW 06:49:12 27° WSW visible
02 Apr 9.0 04:15:26 10° WNW 04:25:24 87° NE 04:30:31 33° ESE visible
02 Apr 10.0 06:21:30 10° WNW 06:28:50 31° WSW 06:28:50 31° WSW visible
03 Apr 9.0 03:53:41 10° WNW 04:03:40 84° NNE 04:10:12 24° ESE visible
03 Apr 9.9 05:59:39 10° WNW 06:07:59 34° SW 06:08:30 33° SW visible
04 Apr 9.1 03:31:55 10° WNW 03:41:56 81° NNE 03:49:55 17° ESE visible
04 Apr 9.8 05:37:48 10° WNW 05:46:21 36° SW 05:48:14 33° SSW visible
05 Apr 9.2 03:10:10 10° WNW 03:20:11 79° NNE 03:29:41 11° ESE visible
05 Apr 9.9 05:15:58 10° WNW 05:24:42 38° SW 05:28:00 30° SSW visible
06 Apr 9.8 04:54:09 10° WNW 05:03:02 40° SW 05:07:49 25° S visible
07 Apr 9.8 04:32:20 10° WNW 04:41:23 43° SW 04:47:42 19° SSE visible
08 Apr 9.8 04:10:32 10° WNW 04:19:43 45° SW 04:27:38 14° SSE visible
